Temperature
14 14 14 13 13 13 13 13 13 13 12 12 12 12 11 11 11 11 11 11 11 11 11 10 10 11 11 11 11 11 11 11 11 11 11 11 11 11 11 11 11 11 11
13 13 13 13 13 13 12 12 12 12 12 12 11 11 11 11 11 11 10 10 10 10 10 10 10 10 10 10 10 10 10 10 11 10 10 10 10 10 11 10 10 11 11
13 13 13 12 12 12 12 12 12 11 11 11 11 11 11 11 10 10 10 10 10 10 10 10 10 10 10 10 10 10 10 10 10 10 10 10 10 10 10 10 10 10 10
13 12 12 12 12 11 11 11 11 11 11 10 10 10 10 10 10 10 9 9 9 9 9 9 9 9 9 9 9 9 9 9 9 9 9 9 9 10 10 10 10 10 10
12 12 12 11 11 11 11 10 10 10 10 10 10 10 10 9 9 9 9 9 9 9 9 9 9 9 9 9 9 9 9 9 9 9 9 9 9 9 9 9 9 9 9
12 12 11 11 11 10 10 10 10 10 9 9 9 9 9 9 9 9 9 9 9 9 8 8 8 8 8 8 8 8 8 8 8 8 8 8 8 9 9 9 9 9 9
11 11 11 11 10 10 10 10 9 9 9 9 9 9 9 9 8 8 8 8 8 8 8 8 8 8 8 8 8 8 8 8 8 8 8 8 8 8 8 8 8 8 8
11 11 11 10 10 10 9 9 9 9 9 8 8 8 8 8 8 8 8 8 8 8 7 7 8 8 8 8 8 8 8 8 8 8 8 8 8 8 8 8 8 8 8
10 10 10 10 10 9 9 9 9 8 8 8 8 8 8 8 8 8 8 7 7 7 7 7 7 7 7 7 7 7 7 7 7 7 7 7 7 7 7 7 7 8 8
10 10 10 9 9 9 9 8 8 8 8 7 7 7 7 7 7 7 7 7 7 7 7 7 7 7 7 7 7 7 7 7 7 7 7 7 7 7 7 7 7 7 7
10 9 9 9 8 8 8 8 8 8 7 7 7 7 7 7 7 7 7 7 7 7 7 7 7 7 7 6 6 6 6 6 6 6 6 6 7 7 7 7 7 7 7
9 9 9 8 8 8 8 8 7 7 7 7 6 6 6 6 6 6 6 6 6 6 6 6 6 6 6 6 6 6 6 6 6 6 6 6 6 6 6 6 6 6 6
9 9 8 8 8 7 7 7 7 7 6 6 6 6 6 6 6 6 6 6 6 6 6 6 5 5 5 6 6 5 5 5 5 5 5 5 5 5 6 6 6 6 6
8 8 8 7 7 7 7 7 7 6 6 6 6 6 6 6 6 6 6 6 6 6 5 5 5 5 5 5 5 5 5 5 5 5 5 5 5 5 5 5 5 5 5
8 8 7 7 7 7 7 7 6 6 6 6 6 6 6 6 6 6 6 6 5 5 5 5 5 5 5 5 5 5 5 5 4 4 4 4 4 4 4 5 5 5 5
7 7 7 7 7 7 7 6 6 6 6 6 6 6 5 5 5 5 5 5 5 5 5 5 5 5 4 4 4 4 4 4 4 4 4 4 4 4 4 4 4 4 4
7 7 7 6 6 6 6 6 6 6 5 5 5 5 5 5 5 5 5 5 5 5 5 4 4 4 4 4 4 4 4 4 4 4 4 4 4 4 4 3 3 4 4
7 6 6 6 6 6 6 6 5 5 5 5 5 5 5 5 5 5 5 5 4 4 4 4 4 4 4 4 4 4 4 4 4 3 3 4 3 3 3 3 3 3 3
6 6 6 6 5 5 5 5 5 5 5 5 4 4 4 4 4 4 4 4 4 4 4 4 4 3 3 3 3 3 3 3 3 3 3 3 3 3 3 3 3 3 3
6 6 6 5 5 5 5 5 5 5 4 4 4 4 4 4 4 4 3 3 3 3 3 3 3 3 3 3 3 3 3 3 3 3 3 3 3 3 3 3 2 2 2
5 5 5 5 5 5 5 4 4 4 4 4 4 4 4 3 3 3 3 3 3 3 3 3 3 3 2 2 2 2 2 2 3 3 2 2 2 2 2 2 2 2 2
5 5 5 5 5 4 4 4 4 4 4 3 3 3 3 3 3 3 3 3 3 3 2 2 2 2 2 2 2 2 2 2 2 2 2 2 2 2 2 2 2 2 2
5 5 4 4 4 4 4 4 4 4 3 3 3 3 3 3 3 3 3 3 3 2 2 2 2 2 2 2 2 2 2 2 2 2 2 2 2 2 2 1 1 1 1
4 4 4 4 4 4 4 3 3 3 3 3 3 3 3 3 2 2 2 2 2 2 2 2 2 2 2 2 1 1 1 1 1 1 1 1 1 1 1 1 1 1 1
4 3 3 3 3 3 3 3 3 3 3 3 2 2 2 2 2 2 2 2 2 2 2 2 1 1 1 1 1 1 1 1 1 1 1 1 1 1 1 1 1 0 0
3 3 3 3 3 3 3 3 3 2 2 2 2 2 2 2 2 2 2 2 1 1 1 1 1 1 1 1 1 1 1 1 1 1 1 1 1 1 0 0 0 0 0
Wind_Speed
2 2 2 2 2 2 2 1 1 1 2 1 0 1 1 1 2 2 2 2 2 2 2 2 2 2 2 2 2 2 2 1 2 2 1 0 0 1 1 1 1 3 3
2 2 2 2 2 2 2 1 1 1 1 1 0 1 2 2 2 2 2 2 2 2 2 2 2 2 2 2 2 2 2 2 1 2 2 1 0 1 1 1 0 1 3
2 2 2 2 2 1 1 1 1 1 1 2 1 1 1 1 1 2 2 2 2 2 2 2 2 2 2 2 2 2 2 2 2 1 2 1 1 1 1 2 1 0 1
3 3 2 2 1 1 1 1 1 1 1 1 1 1 2 2 2 2 2 2 2 2 2 2 2 2 2 2 2 2 2 2 2 2 2 1 1 1 1 1 2 1 1
4 3 2 2 1 1 1 0 1 1 2 1 1 1 1 2 2 2 2 2 2 1 1 2 2 3 4 3 3 2 2 1 1 2 2 2 1 1 2 1 1 2 1
3 3 2 3 2 1 1 1 1 1 1 2 2 1 1 1 2 3 2 2 1 1 1 1 1 2 4 5 6 4 3 2 1 1 2 1 2 2 2 2 1 1 2
3 2 2 2 2 1 1 1 1 0 1 1 1 1 1 2 2 2 4 3 1 1 1 1 2 3 4 3 4 5 4 4 3 1 1 2 2 2 2 2 2 2 2
3 2 2 2 1 1 1 1 1 1 1 0 0 0 1 1 2 2 4 2 1 1 2 1 1 2 3 4 3 2 3 3 3 2 1 2 2 2 2 3 4 3 1
2 2 2 2 2 1 1 2 1 1 1 1 1 1 1 0 1 2 3 2 1 2 2 3 2 1 5 6 1 1 2 3 3 3 3 3 4 5 3 1 2 2 2
2 2 2 1 2 2 2 2 1 1 1 1 1 1 1 1 0 2 2 1 1 1 1 2 3 3 4 4 1 1 2 3 3 4 3 3 3 4 3 0 1 1 1
1 2 2 2 2 2 2 1 1 1 1 1 1 1 1 1 1 0 2 1 1 1 2 1 2 3 4 4 2 1 3 3 3 2 1 1 2 2 2 2 1 1 1
2 2 2 2 2 2 2 1 1 1 1 1 1 1 1 1 1 1 1 3 2 2 2 1 1 3 4 4 2 3 4 4 2 1 1 1 1 1 2 2 2 1 1
2 2 2 2 2 2 2 2 2 1 1 2 1 1 1 1 1 1 2 4 4 2 2 2 3 3 3 3 3 3 3 2 1 1 1 1 1 1 1 1 2 2 2
2 2 2 1 1 1 1 1 1 1 1 1 1 1 1 0 0 1 1 2 3 3 2 3 3 3 3 3 3 3 2 2 1 2 2 1 1 1 1 1 1 1 1
2 1 1 1 1 1 1 1 1 1 2 2 2 2 2 2 2 1 1 2 2 2 2 1 1 1 2 2 2 2 2 1 2 2 1 1 1 1 1 1 1 1 1
1 1 1 1 1 1 2 2 3 2 2 1 1 1 0 0 1 1 2 3 4 3 1 2 2 2 2 2 2 1 1 1 1 1 1 2 2 1 1 1 1 1 2
1 1 1 1 1 1 1 1 1 3 2 1 1 1 1 1 1 1 2 3 3 1 1 2 2 2 2 2 1 1 1 1 1 1 2 2 2 1 1 1 1 2 2
1 1 1 1 1 0 1 1 1 1 0 1 1 2 2 2 1 1 1 2 2 1 1 2 2 1 1 1 1 1 1 1 1 1 2 2 2 2 2 2 2 2 2
1 1 1 1 0 1 1 1 1 1 1 0 1 2 2 2 2 1 1 0 1 1 2 2 1 1 1 1 1 2 1 2 2 2 2 2 2 2 2 2 2 3 2
1 0 1 1 0 1 1 1 1 1 1 1 0 0 1 2 1 1 0 1 1 1 1 1 1 1 1 1 1 1 2 1 1 1 2 2 2 2 2 3 3 2 2
1 1 1 1 1 1 1 1 1 1 1 1 1 1 2 1 1 1 1 1 1 2 1 1 1 1 1 1 1 2 2 1 1 1 1 1 2 2 2 2 2 2 2
0 1 1 1 1 1 1 1 1 1 1 1 1 1 2 1 1 1 1 2 2 1 1 1 1 1 1 1 1 1 1 1 1 1 1 2 2 2 2 2 2 2 2
1 1 1 1 1 0 1 1 1 1 1 1 1 1 2 2 2 2 2 2 1 1 1 1 1 1 2 2 1 1 1 1 2 2 2 2 2 2 2 3 3 3 3
1 1 1 1 1 1 1 1 1 1 1 1 1 1 2 2 2 2 1 1 1 1 1 0 1 2 3 2 2 2 2 3 3 3 3 3 3 3 2 2 3 3 3
1 1 1 1 1 1 1 1 1 1 1 1 1 1 1 1 2 1 1 1 1 1 1 1 2 2 3 2 2 2 3 4 4 3 3 3 3 3 3 3 3 3 3
1 1 1 1 1 1 1 1 2 2 1 1 1 1 1 2 2 2 2 2 2 2 2 2 3 3 3 2 3 3 3 4 4 5 4 3 3 3 3 3 4 3 3
Wind_Direction
112 101 100 96 78 62 55 56 66 81 109 135 174 109 86 65 43 41 22 25 13 11 359 356 348 349 344 339 343 335 324 306 263 293 315 244 99 14 24 315 198 160 164
114 108 108 99 101 99 78 51 47 33 41 82 60 65 59 46 40 35 5 6 6 0 347 8 347 351 346 343 342 324 312 303 256 268 291 317 296 297 320 303 184 165 172
125 110 97 96 97 99 102 85 67 58 53 43 39 63 64 53 38 18 13 356 349 355 351 359 351 8 350 344 332 323 312 318 321 284 288 303 301 332 341 321 293 281 202
147 141 135 121 97 93 70 76 72 60 84 65 34 45 55 55 46 24 357 348 354 3 358 354 358 20 358 334 321 319 320 322 322 321 301 289 283 318 6 321 325 329 320
157 147 145 137 125 115 104 47 56 36 42 65 43 29 52 60 34 30 2 348 345 347 355 352 1 17 15 357 343 334 335 322 320 320 310 323 311 334 310 281 305 310 303
149 146 153 148 149 198 148 100 61 55 37 53 41 25 52 47 31 19 8 322 319 314 310 329 345 20 18 4 358 354 354 328 294 284 296 304 291 285 300 300 282 331 294
139 139 146 149 158 189 162 128 121 116 62 57 38 20 71 100 51 9 348 319 304 317 336 340 346 6 15 352 342 342 335 329 315 275 278 283 288 301 305 303 294 258 250
157 157 154 154 172 184 157 166 166 166 116 115 160 316 31 52 47 14 343 322 319 355 3 1 27 12 357 350 333 337 329 315 297 294 265 290 305 296 271 275 273 276 258
157 163 168 172 175 166 175 185 182 179 206 225 199 179 145 139 28 11 1 313 341 356 8 7 18 9 343 344 352 307 312 312 320 311 304 321 333 336 345 341 326 333 306
155 147 149 164 174 177 189 190 192 181 199 212 217 208 173 173 125 11 352 312 323 320 325 353 8 0 350 352 348 311 304 299 304 306 305 312 315 321 316 255 237 263 287
129 134 144 167 184 170 166 167 174 181 195 208 215 202 198 173 143 36 351 299 277 287 295 318 335 337 333 324 327 288 286 304 296 286 292 321 334 332 333 334 316 230 230
112 134 149 156 173 161 161 175 180 192 210 228 215 223 215 183 166 219 323 327 320 262 269 271 275 301 306 303 308 323 319 317 306 312 331 307 306 301 307 306 313 309 253
125 123 146 154 144 150 169 180 185 200 212 226 214 219 234 196 185 253 282 304 314 302 272 268 266 273 282 282 285 301 313 297 296 316 305 291 292 308 343 340 328 340 338
139 139 127 125 125 131 137 154 169 199 216 216 222 232 233 200 172 212 248 270 292 294 298 291 282 273 269 270 278 273 268 265 250 256 268 287 307 342 343 326 303 306 318
130 128 114 99 112 114 106 92 162 192 193 203 226 223 213 222 260 301 292 260 261 263 289 283 267 259 256 256 257 252 247 254 255 266 262 282 290 301 301 313 307 293 276
133 124 106 98 93 99 106 61 33 70 112 152 187 188 238 300 16 356 313 302 292 294 303 257 249 249 242 242 243 252 253 252 252 249 267 272 272 279 296 309 312 276 262
86 97 102 101 96 107 130 133 55 23 44 54 52 52 83 73 62 7 325 331 324 338 284 261 250 247 249 249 240 228 232 249 245 239 243 258 265 270 280 293 297 292 277
99 88 84 99 125 178 186 176 171 160 45 1 7 49 76 68 38 352 350 20 349 358 302 283 272 264 268 280 268 251 244 244 245 247 250 253 250 261 273 268 269 273 274
128 135 147 164 208 211 213 191 168 159 158 131 44 33 44 44 28 16 75 63 273 286 296 307 316 319 308 294 292 289 266 243 238 237 240 244 246 247 257 259 257 276 278
176 165 117 160 214 226 214 205 175 164 165 155 139 48 74 59 31 359 333 295 282 290 298 301 308 314 310 304 306 303 300 281 248 236 247 252 255 256 258 258 256 261 267
175 191 209 217 229 229 223 208 190 182 180 186 206 187 129 177 223 247 245 251 261 269 278 284 284 287 297 304 300 297 295 291 285 278 276 272 266 263 263 260 258 254 264
271 218 226 234 240 240 225 211 213 211 204 205 221 180 169 197 231 244 247 254 262 265 246 254 279 283 279 276 288 289 289 295 298 290 275 270 275 270 266 263 273 275 276
305 295 293 269 231 222 256 254 236 234 230 209 198 189 196 219 231 250 265 271 263 254 253 234 260 285 289 295 292 261 261 280 296 297 280 270 267 266 263 257 258 270 272
286 272 271 267 250 232 247 256 249 245 238 227 221 213 214 224 234 246 263 275 263 272 322 311 273 301 314 315 302 292 292 303 310 299 284 276 270 266 265 261 255 254 264
275 265 264 264 255 245 253 259 257 253 253 255 250 241 232 244 257 261 260 243 247 251 280 298 301 299 300 314 332 327 323 316 307 299 283 271 268 264 260 259 263 267 266
274 271 267 263 251 239 243 250 253 251 238 245 253 249 242 240 251 257 246 232 238 244 259 278 297 303 305 303 309 316 318 312 306 302 292 269 261 258 256 248 255 260 264
Height
1510 1511 1512 1513 1513 1514 1515 1516 1516 1517 1517 1517 1518 1518 1518 1518 1518 1518 1517 1518 1517 1517 1517 1517 1517 1517 1516 1516 1516 1516 1516 1516 1515 1515 1516 1515 1515 1514 1513 1513 1512 1512 1511
1508 1509 1510 1511 1511 1511 1512 1513 1514 1514 1514 1515 1515 1515 1516 1516 1516 1516 1515 1515 1515 1515 1515 1515 1514 1514 1514 1514 1513 1513 1513 1513 1513 1512 1513 1512 1512 1512 1511 1511 1510 1510 1509
1506 1507 1508 1508 1508 1509 1509 1510 1511 1511 1511 1512 1512 1513 1513 1513 1513 1513 1513 1513 1513 1513 1513 1512 1512 1512 1511 1511 1511 1511 1511 1511 1510 1510 1510 1510 1510 1509 1509 1508 1508 1508 1507
1504 1505 1505 1506 1506 1506 1507 1507 1507 1508 1508 1508 1509 1510 1510 1510 1510 1510 1510 1510 1510 1510 1510 1510 1510 1510 1509 1509 1509 1508 1508 1508 1508 1507 1507 1507 1507 1507 1506 1506 1505 1505 1505
1501 1502 1503 1503 1504 1504 1505 1505 1505 1505 1506 1506 1506 1507 1507 1507 1507 1507 1507 1508 1507 1507 1507 1508 1508 1507 1507 1507 1506 1506 1506 1505 1505 1505 1504 1504 1504 1504 1503 1503 1503 1502 1503
1498 1499 1500 1501 1501 1502 1502 1502 1502 1503 1503 1503 1503 1504 1504 1504 1505 1505 1505 1505 1505 1505 1505 1505 1505 1505 1505 1504 1504 1504 1504 1503 1502 1502 1502 1501 1501 1501 1501 1501 1500 1500 1500
1495 1496 1497 1497 1498 1498 1499 1499 1499 1500 1500 1500 1501 1501 1501 1502 1502 1502 1502 1502 1502 1502 1502 1502 1502 1502 1502 1502 1501 1501 1501 1501 1501 1501 1499 1499 1499 1498 1498 1498 1497 1498 1498
1492 1493 1493 1494 1494 1495 1495 1496 1496 1497 1497 1498 1498 1499 1499 1499 1499 1499 1499 1500 1500 1500 1500 1500 1500 1499 1499 1499 1498 1498 1497 1497 1498 1497 1497 1496 1496 1496 1496 1496 1496 1495 1495
1489 1490 1490 1491 1491 1491 1492 1493 1493 1494 1494 1495 1495 1496 1496 1496 1496 1496 1496 1496 1496 1496 1497 1497 1497 1497 1496 1496 1495 1494 1494 1494 1494 1494 1494 1493 1493 1493 1493 1493 1493 1493 1492
1486 1487 1488 1488 1488 1489 1489 1490 1490 1491 1491 1492 1492 1493 1493 1493 1493 1493 1494 1493 1493 1493 1494 1494 1494 1494 1493 1493 1492 1492 1491 1491 1491 1490 1490 1490 1490 1490 1490 1490 1490 1490 1489
1484 1484 1484 1485 1485 1486 1486 1487 1487 1488 1488 1489 1489 1490 1490 1490 1490 1491 1491 1491 1490 1491 1491 1491 1491 1491 1491 1490 1490 1489 1489 1488 1487 1487 1487 1486 1487 1487 1487 1487 1487 1487 1487
1481 1481 1482 1481 1483 1483 1484 1484 1485 1485 1485 1485 1486 1486 1487 1487 1488 1488 1488 1488 1488 1488 1488 1488 1488 1488 1488 1488 1487 1486 1486 1486 1485 1484 1484 1483 1483 1483 1483 1484 1484 1484 1484
1478 1479 1479 1480 1480 1480 1481 1481 1482 1482 1482 1483 1483 1483 1483 1484 1484 1485 1485 1485 1485 1485 1485 1485 1485 1485 1485 1485 1484 1484 1483 1482 1482 1481 1481 1481 1481 1481 1481 1481 1481 1481 1481
1476 1477 1478 1478 1478 1478 1479 1479 1479 1479 1480 1480 1480 1480 1480 1481 1481 1481 1481 1481 1482 1482 1482 1482 1482 1482 1481 1481 1481 1480 1480 1479 1479 1479 1479 1479 1479 1478 1478 1478 1478 1478 1477
1475 1475 1476 1476 1476 1477 1477 1477 1477 1477 1477 1477 1477 1478 1478 1477 1478 1479 1478 1478 1478 1478 1478 1478 1478 1478 1478 1477 1477 1477 1477 1477 1476 1476 1476 1476 1476 1475 1475 1475 1475 1475 1474
1474 1474 1474 1474 1475 1475 1475 1475 1475 1476 1476 1476 1476 1476 1475 1476 1476 1476 1476 1475 1475 1475 1475 1475 1474 1474 1474 1474 1474 1474 1474 1473 1473 1473 1473 1473 1473 1472 1472 1472 1472 1472 1471
1473 1473 1473 1473 1473 1473 1473 1473 1473 1474 1474 1473 1473 1473 1473 1473 1473 1473 1472 1472 1472 1472 1472 1471 1471 1471 1471 1471 1471 1470 1470 1470 1470 1470 1470 1470 1470 1469 1469 1469 1469 1469 1469
1472 1472 1472 1471 1471 1472 1472 1472 1472 1472 1472 1471 1472 1471 1471 1471 1470 1470 1470 1470 1469 1469 1468 1468 1468 1468 1468 1468 1468 1467 1467 1467 1467 1467 1467 1467 1466 1466 1466 1466 1466 1466 1465
1470 1470 1470 1470 1470 1470 1470 1471 1471 1470 1470 1470 1469 1469 1469 1469 1468 1468 1467 1467 1466 1466 1466 1466 1466 1466 1465 1465 1465 1464 1464 1464 1463 1463 1463 1463 1463 1463 1463 1463 1463 1462 1462
1468 1469 1469 1469 1468 1468 1469 1469 1469 1469 1468 1468 1468 1467 1467 1466 1466 1465 1465 1465 1464 1464 1464 1464 1463 1463 1462 1462 1461 1461 1461 1460 1460 1460 1460 1460 1460 1460 1459 1459 1459 1459 1458
1466 1466 1467 1467 1467 1467 1467 1467 1467 1467 1466 1466 1466 1466 1465 1465 1464 1464 1464 1463 1463 1462 1462 1461 1461 1460 1460 1459 1459 1458 1457 1457 1457 1457 1456 1456 1456 1456 1456 1456 1456 1455 1455
1464 1464 1464 1465 1465 1465 1465 1465 1465 1465 1465 1464 1464 1464 1463 1463 1463 1462 1462 1462 1461 1461 1460 1459 1458 1458 1457 1456 1456 1455 1454 1454 1454 1453 1453 1453 1452 1452 1452 1452 1452 1452 1451
1461 1462 1462 1463 1463 1463 1463 1463 1463 1463 1463 1463 1462 1462 1461 1461 1460 1460 1460 1459 1459 1458 1458 1457 1456 1455 1454 1454 1453 1452 1451 1451 1450 1450 1450 1449 1449 1449 1449 1448 1448 1448 1448
1459 1459 1460 1460 1460 1460 1461 1461 1461 1461 1460 1460 1460 1459 1459 1458 1458 1458 1457 1457 1456 1455 1455 1454 1453 1452 1451 1450 1450 1449 1448 1448 1447 1447 1446 1446 1445 1445 1445 1445 1444 1444 1444
1456 1457 1457 1457 1457 1458 1458 1458 1458 1458 1458 1458 1457 1456 1456 1456 1455 1455 1454 1454 1453 1452 1451 1450 1450 1449 1448 1447 1446 1445 1445 1444 1444 1443 1443 1442 1442 1441 1441 1441 1441 1441 1440
1454 1454 1454 1454 1455 1455 1455 1455 1455 1455 1455 1454 1454 1453 1453 1452 1452 1451 1451 1450 1449 1449 1448 1447 1446 1445 1445 1444 1443 1442 1441 1440 1440 1439 1439 1438 1438 1437 1437 1437 1437 1437 1436